Theta_e
318 319 318 317 317 317 317 317 317 317 316 316 317 316 316 316 315 317 317 314 315 316 316 317 317 317 318 318 318 319 319 319 319 319 319 319 319 319 319 318 319 319 319 319 319 319 318 319 319 319 319 319 318 317 316 316 315 315 315 314 314 314 314 314 314 314 314 313 313 313 313 313 313 313 313 313 313 311 316 328 333 331 328 324 324 324
317 317 318 317 318 318 317 317 317 316 316 315 315 316 316 316 316 317 317 314 315 315 316 317 317 317 318 317 318 319 318 318 319 319 319 319 319 319 319 319 319 318 319 318 317 317 317 318 318 318 319 319 319 318 317 317 316 315 315 315 315 314 314 313 313 313 314 313 313 313 313 313 313 313 313 312 313 311 315 325 331 332 329 324 324 326
316 316 317 318 317 317 316 317 316 316 316 316 316 317 316 317 317 316 316 314 314 315 315 317 317 317 317 317 318 318 318 318 319 319 319 319 319 319 319 319 319 319 320 319 317 316 316 316 317 317 317 318 318 318 318 317 316 316 315 315 315 315 314 314 313 314 314 313 313 313 312 312 312 313 313 313 312 312 314 322 327 329 326 323 325 325
316 316 316 317 316 316 315 316 316 316 316 317 317 316 317 319 317 315 315 315 315 315 315 317 316 316 317 317 318 319 319 318 319 319 319 319 319 319 319 319 320 320 321 320 319 319 318 317 316 316 317 317 317 318 318 318 317 316 316 316 315 315 315 314 314 314 314 313 313 312 312 311 312 313 313 313 312 312 313 319 323 323 323 324 327 324
316 315 315 316 316 315 315 315 316 316 316 317 318 317 317 318 317 315 316 315 315 315 315 316 316 316 317 318 319 320 320 320 320 319 319 319 318 318 318 318 318 318 318 318 318 319 318 317 317 316 317 317 317 317 317 318 318 317 317 316 316 315 315 315 315 314 314 313 313 312 312 311 312 313 313 312 312 312 313 315 319 323 325 327 327 325
316 314 314 316 315 316 316 315 317 317 315 316 319 319 317 317 317 317 317 316 315 315 316 316 314 313 316 318 319 319 319 319 320 320 319 319 317 317 318 318 317 317 316 317 316 317 317 317 316 317 316 317 317 317 317 317 317 317 317 316 316 315 315 315 315 315 314 313 313 313 312 312 312 312 313 313 313 313 314 314 317 323 327 328 326 323
315 313 314 316 316 317 318 315 317 318 315 315 318 318 317 317 318 317 318 316 314 315 316 315 313 313 315 316 317 318 318 318 319 319 320 320 319 319 319 319 319 319 318 317 317 316 316 316 316 316 316 316 317 317 317 317 316 316 316 316 316 315 315 315 315 315 314 313 313 312 312 312 312 312 312 313 313 313 313 314 315 317 320 323 323 322
315 313 315 317 317 318 317 316 318 318 315 316 317 317 316 317 318 319 318 317 316 318 316 315 316 315 315 316 317 318 318 318 318 318 319 320 320 320 320 320 320 320 318 317 316 316 316 316 316 316 316 316 317 317 317 317 316 316 315 315 315 315 315 315 314 314 314 313 313 313 313 312 311 311 312 312 313 313 313 315 316 315 316 319 322 325
316 316 316 317 316 317 317 317 318 317 316 318 316 316 317 317 318 319 319 317 318 318 316 317 318 316 315 317 317 319 317 317 318 317 319 319 320 321 321 320 319 317 317 316 317 317 317 316 316 316 317 317 317 317 317 317 317 316 315 315 315 314 314 314 314 314 313 313 312 312 312 312 311 311 311 311 312 312 313 317 319 318 318 322 325 328
315 315 315 316 316 317 316 314 316 317 317 316 315 317 318 318 318 318 318 317 318 317 317 319 319 315 314 315 316 319 318 317 318 318 319 320 321 321 319 317 317 317 317 318 318 318 318 317 317 317 317 317 317 317 318 317 317 317 316 315 314 314 313 313 313 313 313 312 312 312 312 311 311 310 310 311 312 312 314 319 322 320 320 324 327 328
313 312 313 316 316 316 314 312 314 316 316 316 317 318 318 318 318 317 317 317 315 315 316 319 318 315 314 315 315 319 319 318 319 318 318 321 321 319 317 316 317 318 319 319 319 319 319 319 319 319 318 318 318 318 318 318 318 317 317 316 315 313 313 313 313 313 312 312 312 311 311 311 310 310 310 311 312 312 315 319 323 323 321 324 327 327
314 314 314 315 314 314 314 313 313 314 316 318 319 317 316 317 317 316 317 317 315 314 315 316 317 317 315 315 316 318 318 318 319 318 318 320 321 320 318 317 317 317 317 319 319 320 319 319 319 319 319 319 319 319 318 318 318 318 318 317 316 314 313 313 313 313 312 312 312 311 311 311 310 310 310 311 311 312 314 319 323 322 320 322 326 326
316 316 316 314 312 314 316 315 314 314 316 318 317 315 314 314 315 315 317 318 316 315 314 314 316 317 315 315 317 317 317 317 318 318 319 319 319 320 319 318 317 316 317 317 318 319 319 319 319 319 319 319 319 319 318 318 318 318 318 317 316 315 314 314 314 314 313 312 311 311 311 310 310 310 310 311 312 311 313 317 320 319 317 319 323 324
316 318 317 315 313 313 315 316 315 314 315 316 316 315 314 312 314 315 316 316 315 315 313 313 316 316 314 315 317 317 316 318 318 318 319 319 318 319 319 319 318 317 316 316 317 318 319 319 319 319 319 318 318 318 318 318 318 318 318 317 317 315 314 314 314 314 314 312 312 311 311 310 310 309 310 311 311 311 312 315 317 316 318 321 322 323
316 317 317 316 314 314 315 316 316 315 316 316 316 316 314 313 313 314 315 314 315 315 313 313 315 315 315 315 316 317 317 317 318 317 317 317 317 318 318 317 317 317 316 316 316 317 318 318 318 318 318 318 318 318 318 318 318 318 318 317 317 316 315 314 314 314 314 313 312 311 311 311 310 309 309 309 310 310 314 318 316 316 320 323 323 323
315 316 317 317 315 314 315 316 316 317 316 316 318 318 316 315 313 313 314 314 313 314 314 314 314 315 316 316 316 317 317 316 317 317 317 317 317 317 316 316 317 317 317 316 316 316 316 316 317 317 317 317 318 318 318 318 318 318 318 317 317 316 315 315 314 314 314 313 312 312 311 311 310 309 309 308 308 311 316 319 316 316 321 322 320 319
314 315 317 315 315 314 314 316 316 317 317 317 318 319 317 317 315 313 314 313 312 313 314 315 315 315 314 315 317 316 315 316 316 317 317 317 317 317 317 316 316 317 317 316 316 316 316 317 316 316 317 318 318 318 318 318 318 317 317 317 317 317 316 316 315 315 314 313 313 312 312 311 310 310 309 308 308 310 313 315 315 317 321 321 320 318
314 315 315 314 315 314 312 314 315 315 316 317 317 317 316 315 315 314 314 314 314 314 314 313 313 313 312 314 317 317 316 316 316 316 317 317 317 318 318 317 316 317 317 316 316 316 317 317 317 317 317 318 318 318 318 318 317 317 317 317 317 316 316 316 315 315 315 314 313 313 312 312 311 310 310 308 308 308 310 313 317 317 319 320 320 318
315 314 314 313 314 314 311 313 315 314 314 315 316 316 315 315 315 314 314 315 315 316 316 314 313 313 313 314 315 315 316 316 316 316 316 317 317 318 319 319 318 317 317 316 316 316 317 317 317 318 318 319 319 318 318 317 317 317 317 317 317 316 316 316 315 315 315 314 314 313 313 312 311 311 310 309 308 308 309 313 316 315 316 319 319 317
314 314 315 311 312 314 312 313 315 315 314 313 314 315 315 316 315 314 314 314 314 315 316 316 315 314 315 315 315 316 316 315 316 316 316 318 318 318 319 320 318 317 317 317 317 317 317 318 318 318 319 319 319 318 318 318 318 318 318 318 317 317 317 316 316 316 315 315 314 314 313 313 312 311 311 309 308 308 309 312 314 314 316 318 317 316
313 313 314 312 311 313 314 314 315 316 315 313 313 315 315 315 314 314 316 315 314 314 315 315 315 314 315 317 316 316 316 316 316 317 318 319 319 319 319 319 317 316 317 317 317 317 317 317 318 319 319 319 318 318 318 318 318 318 318 318 318 318 318 317 317 316 316 315 314 314 313 313 313 311 310 309 309 308 308 310 314 315 315 315 315 317
314 313 314 313 312 314 315 315 314 315 316 314 313 314 315 315 315 315 316 316 315 315 315 315 315 315 315 317 316 315 315 316 317 318 318 319 319 320 319 318 317 316 316 317 318 317 316 317 318 319 319 319 318 319 319 318 318 318 318 318 318 318 318 317 317 317 316 315 314 313 313 313 312 311 310 310 309 308 307 308 311 313 312 313 315 317
314 313 314 314 315 315 314 314 312 313 315 316 315 315 315 316 315 315 316 316 316 316 315 316 316 317 316 316 316 316 316 317 317 318 319 319 319 319 318 317 317 317 316 317 318 317 316 316 318 319 319 319 319 319 318 318 318 318 318 318 318 318 318 317 317 317 316 315 314 313 312 312 312 311 310 309 309 308 308 308 309 309 311 313 316 316
314 314 314 314 315 315 314 313 313 312 314 316 316 316 316 316 316 316 316 315 316 317 316 316 316 316 317 318 318 316 316 316 316 316 317 318 317 316 316 316 317 317 317 317 317 317 317 317 318 319 319 319 319 319 318 318 318 318 318 317 317 317 317 317 317 317 317 316 314 313 313 312 312 311 310 309 309 308 308 308 308 310 311 312 313 313
314 314 314 314 315 315 315 315 314 313 314 315 316 316 317 317 317 317 316 315 316 317 316 316 316 315 316 320 318 315 316 317 316 316 316 316 316 316 317 317 317 317 317 316 317 317 317 318 318 318 318 319 319 318 318 318 318 318 317 317 317 317 317 317 317 317 317 317 315 313 313 313 312 311 310 310 309 308 307 307 308 310 311 310 310 312
316 317 316 314 315 316 316 317 317 315 314 314 315 316 317 317 317 317 316 316 316 317 317 317 316 315 315 318 316 315 316 316 317 317 316 316 316 316 316 317 317 317 317 316 316 317 317 318 318 318 318 319 319 318 318 318 318 318 317 317 317 317 317 317 317 317 317 317 316 314 314 313 312 311 310 310 309 308 307 307 308 310 310 309 310 312
318 320 317 315 315 315 316 317 318 317 315 315 315 316 317 317 317 317 317 316 316 317 317 317 317 316 316 316 315 316 316 316 316 317 317 317 317 317 317 318 317 317 317 317 317 317 317 318 318 318 318 318 318 318 318 318 317 317 317 317 317 317 317 317 317 317 317 317 316 315 314 313 312 311 310 310 309 308 308 307 308 309 310 310 311 313
318 317 317 317 316 315 315 316 317 317 316 316 316 316 316 317 318 318 317 316 316 317 317 317 317 318 317 315 316 316 316 316 316 316 317 317 318 317 317 317 317 317 317 317 318 318 318 318 318 318 318 318 318 318 318 318 317 317 316 317 317 316 316 316 316 317 317 317 316 316 315 313 312 311 310 309 309 308 308 308 308 309 310 310 312 313
316 315 316 317 316 316 316 315 315 316 316 316 316 316 317 317 317 318 317 316 316 317 317 317 317 318 317 316 316 316 316 316 316 317 317 317 317 317 316 316 316 316 316 316 317 318 318 318 318 318 317 317 317 318 318 317 317 317 316 316 316 316 316 316 315 316 316 316 317 316 315 314 312 311 310 309 309 308 308 308 307 308 309 310 312 313
314 315 315 315 315 315 316 316 316 316 316 316 316 316 317 318 318 317 316 316 316 317 316 316 317 317 316 316 316 316 317 317 316 317 317 316 316 316 316 316 316 315 315 315 315 316 317 317 318 318 318 317 317 318 318 317 317 316 316 316 316 316 316 315 315 316 316 316 317 316 315 314 312 311 310 309 308 308 307 307 307 307 308 310 311 313
313 315 315 316 316 316 315 316 316 316 316 316 316 316 316 317 318 318 317 317 317 317 316 316 317 317 316 316 316 316 317 317 317 317 317 316 316 316 316 316 315 315 315 315 315 315 315 316 316 317 317 317 317 318 317 317 316 316 315 315 315 315 315 315 315 315 316 316 316 316 315 314 313 311 309 309 308 308 307 307 307 307 307 309 311 312
311 313 315 315 316 317 316 316 316 317 317 317 317 317 316 316 317 317 318 317 317 317 317 318 318 317 316 316 317 317 317 317 317 317 317 317 316 316 316 316 316 316 316 315 316 316 316 316 316 316 316 316 317 317 316 316 316 315 315 315 315 315 314 314 314 315 315 315 315 315 315 314 313 311 309 309 308 307 307 306 307 307 308 309 310 311
311 311 313 314 316 317 316 316 316 317 318 318 317 316 316 316 316 316 317 317 317 317 317 317 317 316 316 316 316 316 317 317 317 317 317 317 316 316 316 316 316 316 316 316 316 316 316 316 316 316 316 316 316 316 316 316 316 316 316 316 316 315 314 314 314 315 315 315 315 315 315 314 313 311 309 308 308 307 307 306 306 307 308 309 310 310
311 312 313 314 315 316 316 316 317 317 318 319 318 316 316 316 316 316 316 316 316 317 316 316 316 315 316 316 316 316 316 317 317 317 316 316 316 316 316 316 316 316 316 316 316 316 316 316 316 316 316 316 316 316 316 316 316 316 316 316 315 315 315 314 314 315 315 314 314 314 314 313 312 310 309 308 307 307 306 306 306 307 308 309 310 309
311 312 313 314 315 315 316 316 317 319 319 318 316 316 315 315 315 316 316 316 316 316 316 316 316 315 315 316 316 316 316 316 316 316 316 316 316 316 316 316 315 316 316 316 316 316 316 316 316 316 316 316 316 315 315 316 315 316 316 315 315 315 315 315 314 315 314 314 314 313 313 313 311 309 308 307 307 306 306 305 305 306 307 308 308 308
311 311 312 313 314 315 316 316 318 319 318 316 316 315 315 315 316 316 317 316 315 316 316 316 315 315 315 316 316 316 316 316 316 315 315 315 315 315 315 315 315 315 315 315 316 315 315 315 315 315 315 315 315 315 315 315 315 315 315 315 315 315 315 315 315 314 314 313 313 313 313 312 311 309 307 306 306 306 305 304 304 305 306 307 307 307
311 312 312 313 314 315 316 316 317 318 317 316 316 315 316 316 316 316 317 316 315 315 316 316 316 315 316 316 316 316 316 315 315 315 315 315 315 315 315 315 315 315 315 315 315 315 315 315 315 315 315 315 315 315 315 314 314 315 314 314 314 314 314 314 314 314 313 313 312 312 312 311 310 307 306 306 306 305 304 303 303 304 305 306 306 305
312 312 313 313 314 314 315 316 316 317 317 317 317 316 316 316 316 316 317 317 316 316 316 316 316 316 316 316 316 316 316 316 316 316 316 315 316 315 316 316 315 315 315 315 315 315 315 314 314 314 314 314 314 314 314 314 314 314 314 314 314 314 314 314 313 313 312 312 312 311 311 310 308 306 305 305 305 305 304 303 303 304 304 305 305 305
313 313 313 313 314 314 315 315 316 317 317 317 317 316 316 317 316 317 319 318 317 316 317 316 316 316 317 317 316 316 316 316 316 316 315 316 316 316 316 315 315 315 315 315 315 315 315 314 314 314 314 314 313 313 313 313 313 313 313 313 314 314 314 313 313 312 312 311 311 310 309 307 306 305 304 304 304 304 303 303 303 304 304 304 304 304
314 313 313 313 313 314 314 315 315 315 316 317 317 315 315 316 316 319 319 319 316 315 316 316 316 317 317 316 316 316 316 316 316 316 315 315 315 315 315 315 315 315 315 315 314 314 314 314 314 314 314 314 314 313 313 313 313 313 313 314 314 314 313 313 312 311 311 310 309 308 306 305 304 303 303 303 303 303 303 303 303 303 303 303 303 302
313 313 313 313 314 314 314 314 314 314 315 316 316 314 314 316 318 319 318 316 314 315 315 315 315 316 316 316 316 316 316 316 316 316 315 316 315 315 315 315 315 315 314 314 314 314 314 314 314 314 314 314 314 314 314 313 313 313 313 313 313 313 312 312 311 310 309 308 307 305 304 303 303 302 302 302 302 302 302 302 302 302 302 302 301 300
311 312 313 313 313 314 314 314 314 315 316 315 314 313 313 316 317 316 313 311 311 312 312 312 313 314 315 316 315 315 315 315 315 315 315 315 315 315 315 315 314 313 313 313 313 313 313 313 313 314 314 314 314 313 313 313 313 313 313 313 312 312 311 310 309 308 307 306 305 304 303 302 302 301 301 300 300 301 301 301 301 301 300 300 299 299
311 312 313 314 314 314 314 314 315 316 314 313 313 314 313 314 314 311 309 309 310 310 309 310 310 311 312 313 313 314 314 314 314 315 314 315 314 314 314 313 312 312 312 312 312 312 312 312 313 313 313 313 313 313 313 313 312 312 312 311 311 310 309 308 308 307 306 305 304 303 302 301 301 300 300 299 299 299 300 300 300 299 298 298 298 298
310 310 311 313 314 314 314 315 314 312 310 310 311 312 312 311 309 308 308 309 309 308 309 309 309 309 310 310 311 312 312 313 313 313 313 313 314 313 313 313 312 312 312 312 312 312 312 312 312 312 313 313 312 312 312 311 311 310 310 309 309 308 307 307 306 305 304 303 303 302 301 301 300 299 299 299 299 299 299 299 298 298 298 298 298 298
308 309 308 310 312 312 313 313 311 308 307 308 309 309 309 308 307 306 307 308 308 308 309 308 309 309 308 308 308 309 310 311 312 312 312 312 312 313 313 313 313 312 311 311 311 311 311 311 312 312 312 312 312 311 311 310 309 309 309 308 307 307 306 305 305 304 303 302 302 301 300 300 299 299 299 298 298 298 298 298 298 298 298 298 297 297
308 308 307 308 311 311 310 311 309 308 308 309 309 308 307 306 306 306 307 308 309 309 310 309 309 310 309 308 307 308 309 309 309 310 311 311 311 312 312 312 312 312 311 311 311 311 311 311 311 311 311 310 310 310 309 308 308 307 307 306 306 305 305 304 304 303 302 301 301 300 300 299 298 298 298 298 297 297 298 298 298 298 297 297 296 296
307 307 305 306 308 309 310 310 308 307 308 309 309 308 307 306 307 307 308 308 309 310 309 309 309 310 310 310 309 309 310 310 310 311 311 311 311 312 312 312 312 312 311 311 310 310 310 310 310 310 309 309 308 307 307 306 306 306 305 304 304 304 303 303 303 302 301 301 300 300 299 299 298 298 297 297 297 296 296 296 296 296 296 296 296 297
305 305 303 303 304 306 308 308 306 305 307 308 308 309 309 308 308 308 307 307 308 308 308 308 308 309 309 310 310 310 311 311 311 311 312 311 311 311 311 311 312 311 311 310 310 309 309 309 309 308 307 307 306 305 305 305 305 305 304 303 303 303 303 302 302 302 301 301 300 300 299 299 299 298 297 296 296 296 295 295 295 295 296 297 297 297
302 302 302 302 303 304 305 305 304 304 305 305 305 306 307 307 306 306 306 305 306 307 307 306 306 307 308 309 310 311 310 311 311 311 311 311 311 310 310 310 311 311 311 310 309 309 309 309 308 306 305 305 304 304 304 304 304 303 303 302 303 303 303 302 302 301 301 301 300 300 300 299 299 298 298 296 296 296 296 296 296 296 297 297 297 296
301 301 302 302 302 303 303 303 303 303 303 303 303 304 304 304 305 306 306 305 304 305 305 305 306 306 307 308 310 310 310 310 311 310 310 311 311 310 309 309 309 310 310 310 309 308 308 308 307 305 304 303 302 303 303 303 303 302 301 301 302 303 303 303 302 302 301 301 301 300 300 299 298 298 298 297 297 297 297 296 296 295 295 294 294 293
300 300 300 301 301 301 302 302 302 302 302 302 303 302 302 302 304 305 305 304 304 304 304 305 306 306 307 308 308 309 309 310 310 310 310 310 310 309 309 308 308 309 309 309 308 308 308 307 307 306 304 302 302 303 303 303 302 302 302 302 302 303 303 303 303 303 302 302 301 301 300 299 299 298 298 298 298 298 297 296 295 293 292 292 292 291
Wind_Speed
3 4 5 6 6 8 9 8 4 2 3 2 2 3 5 4 3 3 5 3 1 4 7 10 11 13 14 14 16 20 19 20 21 20 19 19 19 22 24 26 27 27 29 30 32 33 33 32 32 31 28 26 25 26 28 30 32 32 33 34 34 33 33 33 32 31 31 31 33 34 33 32 32 32 33 33 30 32 36 35 34 34 30 27 29 31
3 5 7 7 2 0 2 3 1 1 2 3 4 4 4 5 3 3 4 2 1 3 6 7 11 13 13 13 17 19 18 19 20 20 21 21 21 22 24 27 28 28 28 30 34 36 36 36 36 34 31 30 29 27 27 29 31 33 34 34 34 34 35 35 34 33 32 32 32 33 32 31 31 32 32 32 30 32 36 37 37 36 32 30 31 33
4 7 6 4 5 5 3 1 3 5 5 4 4 4 4 3 2 3 4 1 2 3 5 5 9 13 14 14 17 19 19 21 22 21 21 21 21 23 24 25 23 22 21 26 33 34 35 37 36 36 34 32 31 30 29 29 31 33 34 35 35 35 36 36 36 35 33 32 31 32 32 32 32 32 32 31 30 31 35 39 39 38 36 33 33 34
5 5 2 5 6 4 2 2 5 4 5 5 4 5 3 1 2 1 2 1 3 4 6 7 8 12 14 13 16 20 22 24 22 19 20 21 23 26 28 25 21 19 20 24 27 26 29 34 33 34 34 32 32 33 33 32 32 33 34 35 36 36 36 36 36 36 34 33 32 32 33 33 35 34 31 30 30 29 33 38 39 40 39 37 35 35
4 2 3 4 4 5 4 5 6 5 5 6 6 7 5 2 2 1 2 2 5 5 3 6 7 9 10 10 11 9 11 15 16 15 17 19 23 28 29 28 25 25 25 27 27 22 24 30 30 30 29 28 29 30 32 33 32 33 34 35 35 36 36 36 36 36 35 35 35 34 34 36 37 35 31 32 31 30 32 37 40 40 40 38 36 36
3 4 3 4 4 6 6 5 7 7 5 6 7 8 9 6 3 2 3 4 5 3 1 3 5 5 6 9 10 6 5 9 11 13 15 19 23 25 25 26 26 27 27 28 29 25 25 29 31 30 28 26 24 24 26 29 31 33 34 35 36 36 36 36 37 37 36 37 36 36 36 37 38 37 35 34 33 31 32 35 38 40 41 39 37 36
2 4 3 5 5 5 5 6 7 7 6 5 3 3 7 6 3 3 4 3 4 3 1 1 4 5 8 12 14 11 10 11 10 12 16 18 20 21 20 20 20 22 23 23 24 22 23 26 28 29 28 26 24 21 22 25 28 31 33 35 35 37 38 38 38 38 38 38 38 38 37 37 37 37 36 34 33 32 31 32 34 36 39 39 36 35
5 6 4 5 6 5 6 5 5 9 7 2 1 2 1 2 3 3 3 4 3 5 2 4 3 6 7 12 15 10 9 12 11 13 15 17 19 17 15 14 14 15 16 15 16 16 18 20 21 22 23 22 22 22 23 23 24 27 30 32 34 36 38 39 40 39 39 39 39 39 37 36 36 36 36 35 35 33 31 31 31 32 34 35 33 33
4 7 7 8 7 6 5 1 2 10 7 0 2 1 3 3 1 1 2 4 2 4 5 5 5 6 6 9 11 6 6 11 12 13 13 14 14 11 9 9 9 9 9 9 11 12 14 15 16 18 19 18 19 21 23 22 21 23 26 29 31 34 36 38 39 39 40 39 39 39 37 35 35 36 36 36 35 34 32 32 31 31 32 32 32 34
3 1 4 7 7 5 3 5 3 4 3 3 3 4 6 4 3 2 2 3 2 5 6 6 9 6 7 7 8 5 5 9 11 11 8 5 4 4 3 3 2 3 4 6 9 10 11 12 13 14 15 15 16 18 20 21 21 22 24 27 29 31 34 36 37 38 39 39 39 39 37 35 35 35 36 37 36 34 33 33 33 32 31 33 35 35
3 2 1 3 3 1 6 7 6 3 3 7 6 4 4 2 2 0 2 1 4 6 4 6 11 7 7 4 7 5 2 5 6 4 3 6 7 7 3 1 1 2 3 4 7 7 8 8 7 7 7 7 9 11 14 17 20 22 24 26 28 29 32 34 35 36 36 37 37 37 35 34 35 35 36 37 37 36 34 33 34 33 32 36 38 37
3 2 2 2 1 4 7 6 5 4 3 5 4 3 2 2 1 2 2 2 5 6 1 1 3 6 8 3 4 2 1 2 2 2 3 3 3 5 2 3 3 2 3 3 4 6 6 5 5 4 4 2 3 5 8 11 14 18 21 25 27 28 30 31 33 33 33 34 34 35 34 34 35 35 36 38 37 36 34 33 35 35 35 38 40 39
4 6 4 4 2 5 7 5 4 2 2 4 4 5 3 3 3 4 5 4 6 4 2 1 2 4 11 6 2 3 3 3 3 3 3 5 7 4 3 8 9 7 6 5 6 7 7 7 6 6 4 3 6 8 9 12 13 16 17 20 23 25 27 29 31 32 31 31 32 33 33 33 34 35 37 38 37 36 35 35 36 36 36 38 41 42
4 4 5 5 2 7 9 5 5 4 5 7 7 7 6 5 5 6 6 5 5 2 2 0 0 5 11 6 6 10 9 7 4 5 9 11 15 14 11 14 16 15 13 10 9 9 9 9 8 8 7 8 11 12 12 14 15 16 17 18 19 21 24 26 28 29 29 30 30 31 31 32 34 36 38 38 38 37 35 35 35 34 35 37 39 40
7 4 8 10 7 12 13 9 8 6 8 10 8 7 7 6 6 7 5 5 5 1 1 2 2 5 5 3 1 3 2 5 6 10 15 17 18 18 18 20 21 20 18 16 15 14 15 15 14 13 12 13 14 14 14 14 15 16 17 17 17 18 20 22 25 26 27 28 28 29 30 31 32 35 37 38 38 37 35 34 33 33 34 34 35 36
10 7 8 8 8 18 16 12 11 7 7 7 5 7 8 5 6 5 1 1 2 2 2 4 4 6 4 5 6 4 3 5 7 10 12 13 14 14 16 20 20 19 19 20 22 21 19 20 22 21 17 16 16 14 13 13 14 14 14 14 15 15 17 19 22 24 24 25 26 28 30 30 31 35 37 37 36 36 36 35 33 32 32 32 31 32
8 4 5 5 6 13 9 6 8 4 3 5 5 7 4 1 3 5 1 3 1 5 6 5 7 8 7 10 11 12 12 12 11 11 10 10 15 16 20 25 25 23 24 24 24 23 20 19 22 21 18 17 16 13 12 11 11 11 11 12 12 13 15 17 19 21 21 23 24 26 28 28 31 34 35 35 35 35 35 34 33 32 33 33 31 30
6 3 2 4 5 6 1 2 2 2 1 3 5 6 3 4 2 4 4 1 3 8 6 6 11 11 7 7 2 6 8 7 6 9 10 12 15 16 21 27 29 27 25 23 21 20 20 18 16 17 16 16 14 11 10 9 9 8 7 8 9 10 12 14 17 19 20 22 23 23 25 26 29 31 32 34 34 34 34 33 33 33 34 34 32 30
5 5 2 1 2 4 3 1 3 1 1 0 1 2 2 2 4 5 6 5 6 8 6 8 13 11 9 10 4 3 5 5 6 8 9 9 10 11 12 15 18 19 18 18 18 17 17 15 14 15 16 16 14 11 10 8 6 4 4 5 6 7 10 12 15 17 19 21 23 23 24 25 27 28 29 31 33 33 33 34 34 34 34 33 31 31
4 6 3 1 1 4 5 5 7 6 3 1 2 2 1 2 4 5 6 5 6 8 6 9 11 9 9 11 11 10 9 9 8 6 5 5 7 8 7 7 9 12 14 15 15 15 15 15 15 17 17 16 14 11 10 7 4 3 3 4 5 6 8 10 13 15 17 20 21 23 24 24 25 25 25 27 30 32 33 33 34 34 34 33 32 33
4 5 5 1 1 3 5 8 11 10 8 5 5 6 5 2 1 2 5 6 6 7 7 8 9 9 7 5 7 9 7 6 3 2 3 4 7 9 8 9 10 12 14 15 14 16 18 18 18 19 18 16 14 12 9 6 5 4 4 5 5 7 8 10 12 14 16 18 20 22 23 24 23 22 23 25 28 31 33 33 34 35 35 34 34 35
6 6 6 4 4 7 7 6 7 7 9 10 9 10 10 8 5 4 7 6 5 5 6 6 8 10 6 1 3 5 5 4 3 3 4 6 7 7 8 12 15 16 18 18 16 18 22 21 20 21 19 17 15 12 8 7 6 6 6 6 7 9 10 11 12 14 16 18 19 21 22 22 21 21 22 24 26 30 32 34 35 37 36 36 36 36
5 4 7 6 6 6 3 2 1 2 3 6 7 9 10 9 8 8 8 5 4 4 4 5 7 11 7 1 1 3 3 3 2 1 5 6 6 8 11 17 21 22 21 20 18 19 22 22 22 22 20 18 17 13 10 8 7 7 8 8 9 11 12 12 13 14 16 19 20 21 22 22 21 21 22 24 26 29 31 33 34 35 36 36 36 35
3 3 7 7 5 3 3 3 2 1 2 5 7 7 7 8 9 8 4 1 3 6 6 5 7 11 8 1 0 2 1 1 4 6 7 6 8 12 16 21 23 23 20 18 18 17 20 22 23 23 21 20 18 14 10 9 10 10 10 10 11 13 13 13 13 14 17 19 20 21 22 22 22 21 21 24 27 28 30 32 33 33 34 35 35 35
5 4 6 7 6 5 5 5 4 3 3 5 7 7 7 10 9 4 1 1 5 8 10 9 8 10 9 1 3 2 2 4 7 7 7 8 11 15 19 21 20 19 18 17 15 16 19 23 25 23 22 21 19 14 12 12 13 13 12 12 12 14 15 14 14 15 17 19 20 21 22 22 22 22 22 24 26 27 29 31 32 34 35 35 35 35
5 2 5 7 8 9 8 5 4 5 5 4 6 9 10 11 11 6 2 4 8 10 12 11 8 11 14 8 2 3 4 6 6 5 6 10 14 16 19 19 18 17 17 16 15 16 19 24 26 24 23 23 20 16 14 15 16 16 15 14 14 15 16 16 16 17 18 20 21 22 22 22 23 23 23 24 26 26 28 29 30 33 35 34 34 34
1 1 3 6 8 10 8 3 2 6 8 8 10 12 12 12 13 9 6 7 9 9 11 12 10 14 20 19 13 8 6 6 7 8 8 10 13 13 14 17 18 17 15 14 16 17 19 23 26 26 25 25 22 19 18 18 19 19 18 17 16 16 17 18 19 20 20 21 22 23 23 24 24 23 23 23 24 26 27 28 28 30 31 31 31 31
3 2 6 8 11 13 12 10 4 2 7 11 12 13 13 13 13 11 10 12 11 10 12 13 14 16 19 21 21 18 13 10 9 12 13 11 9 9 13 19 22 19 16 16 17 19 21 22 25 27 28 27 25 22 21 21 21 22 23 21 19 18 19 20 21 21 21 22 23 24 24 25 25 24 23 22 23 25 27 27 27 27 29 29 30 30
3 6 9 9 13 16 15 16 15 11 9 10 11 13 14 15 15 14 15 17 15 12 12 13 16 17 18 21 23 19 16 16 17 18 20 16 12 14 20 25 27 27 27 28 27 25 26 25 25 27 29 29 27 25 23 24 25 26 25 24 22 21 21 23 23 22 22 23 24 25 26 26 25 24 24 23 23 25 27 27 27 27 28 29 29 29
4 7 10 10 12 16 18 18 17 16 16 15 16 16 14 13 15 17 18 20 21 19 16 17 21 21 20 22 23 22 22 24 23 21 19 18 17 19 24 27 28 31 34 36 36 36 36 35 32 31 30 29 28 28 29 30 28 26 24 24 25 25 24 25 25 24 24 25 25 27 27 27 26 25 24 24 23 24 25 27 27 28 29 30 28 27
3 6 8 8 9 13 17 18 18 18 17 17 16 15 14 14 15 18 18 18 17 18 19 21 22 21 20 20 21 27 29 25 22 20 17 19 22 23 25 27 28 31 35 39 41 42 43 44 43 42 40 37 35 35 36 34 30 26 26 27 28 27 26 26 26 25 25 26 26 28 28 28 27 26 25 25 24 23 24 26 27 27 29 30 29 28
3 3 2 4 6 10 13 15 17 15 14 14 14 14 17 19 17 16 14 12 13 15 18 19 17 16 18 16 17 25 25 19 20 22 20 23 27 27 28 28 28 33 38 40 42 43 44 45 46 47 46 43 39 37 36 35 34 32 30 31 30 28 27 27 27 27 27 27 27 29 29 29 28 26 26 26 25 23 23 25 27 28 28 29 29 28
5 4 3 4 6 9 12 14 13 11 9 9 12 16 20 21 20 16 13 15 18 17 15 13 13 15 18 16 15 19 18 14 17 20 22 27 29 28 28 28 30 35 39 41 42 43 43 43 44 43 41 39 38 40 42 42 42 39 35 34 33 30 28 27 27 28 29 28 28 30 30 30 29 27 26 26 25 23 22 25 28 29 29 28 28 27
6 7 6 5 4 9 13 11 8 9 9 8 12 17 20 21 21 19 18 21 22 18 14 14 15 17 19 19 19 19 18 16 19 24 28 28 26 26 28 31 34 37 39 41 41 41 41 41 42 42 40 40 41 43 45 45 44 40 37 37 35 32 31 30 29 31 31 30 30 31 31 31 30 28 26 25 25 24 22 24 27 29 28 27 26 25
5 6 6 5 4 7 9 7 7 9 9 10 12 13 15 18 21 22 23 25 24 19 16 18 19 21 23 26 27 26 25 26 28 33 35 31 28 28 31 36 39 38 39 41 41 40 40 40 41 42 42 42 42 43 44 43 41 39 38 38 35 33 32 33 33 34 33 31 31 31 31 31 30 28 26 25 25 24 22 22 24 26 26 25 24 22
6 5 5 5 5 5 6 8 8 4 2 6 9 8 10 14 17 19 20 23 25 21 18 19 21 24 26 30 33 32 32 33 32 36 41 40 36 37 39 42 44 41 40 43 43 43 42 40 40 41 41 42 42 42 42 41 39 39 39 37 34 33 34 36 37 36 35 33 32 31 30 30 29 28 26 25 24 24 21 20 21 23 24 23 23 21
10 6 4 5 5 5 7 9 8 7 6 6 7 9 11 12 13 13 12 15 19 19 18 19 21 23 24 28 34 33 29 24 20 27 43 45 38 40 44 44 44 42 42 45 45 45 45 42 41 42 41 41 41 41 40 39 39 38 37 35 35 36 37 38 38 36 34 32 31 30 29 29 28 26 24 23 23 22 21 19 18 20 21 22 20 19
13 10 7 6 6 6 7 8 7 9 9 8 12 15 14 12 12 11 9 11 12 15 19 20 21 24 22 23 27 26 19 12 7 19 42 43 32 34 39 37 38 40 39 40 41 40 41 40 40 41 41 41 41 40 39 38 36 35 35 35 36 36 36 35 34 33 31 30 28 28 28 27 26 23 21 21 21 20 19 18 17 18 19 19 18 18
17 13 10 9 8 8 8 8 8 8 6 8 13 16 16 15 11 7 6 8 9 16 22 19 19 23 21 21 23 18 11 8 6 18 40 42 32 32 35 32 33 36 34 32 32 32 32 31 32 35 36 37 37 36 34 33 32 32 33 32 32 32 31 31 30 29 28 27 26 26 26 24 22 20 19 19 19 18 18 18 17 16 16 17 18 19
14 12 11 11 11 11 11 9 7 7 5 6 10 12 11 12 10 7 7 8 11 21 24 19 19 22 21 23 22 13 8 10 13 24 40 42 35 34 35 33 33 34 33 30 27 26 27 26 26 28 28 29 29 29 28 27 27 28 28 27 28 28 28 28 27 27 26 26 25 23 22 21 19 18 17 16 16 17 17 18 18 17 17 17 17 16
6 8 9 10 10 13 15 12 7 7 5 6 12 12 4 5 8 10 8 5 7 15 17 15 19 22 22 24 19 11 15 24 29 36 43 42 37 37 37 37 36 34 33 30 26 25 26 25 25 25 24 24 24 23 23 22 23 24 25 26 26 26 26 26 25 25 24 23 22 20 19 19 17 16 15 15 15 16 17 17 17 17 16 16 14 12
4 4 6 8 9 10 13 11 8 6 4 6 14 11 4 5 7 7 5 13 15 14 16 15 12 13 18 24 23 21 26 33 36 38 40 40 39 37 37 37 35 32 32 31 30 29 28 26 25 24 23 23 22 21 21 22 23 25 26 25 25 25 25 24 23 23 22 20 19 19 18 18 17 16 16 16 16 16 17 17 16 16 15 13 11 10
4 2 3 6 6 6 9 9 8 5 1 2 5 5 6 5 5 8 11 17 21 22 23 22 18 14 14 17 21 24 27 29 30 32 34 36 36 35 35 36 34 32 32 33 33 32 29 26 24 23 23 22 22 22 23 24 25 25 25 24 24 24 23 22 21 20 19 19 18 18 18 17 17 17 17 16 16 17 17 16 16 16 14 12 11 11
5 5 5 3 3 4 7 6 3 1 2 4 4 3 3 5 15 20 16 16 22 25 24 23 24 22 17 16 20 24 26 28 30 31 32 33 34 35 36 37 37 35 34 32 31 29 27 25 24 23 23 24 24 25 26 25 24 23 23 23 22 21 20 19 19 18 18 18 18 18 18 18 18 18 18 18 18 18 18 17 16 15 14 14 14 14
6 6 7 6 4 4 4 4 3 5 12 14 11 8 8 14 24 26 19 16 21 25 24 25 30 29 23 19 20 22 25 29 32 33 34 34 34 35 35 35 35 33 30 28 27 26 26 26 25 25 25 26 26 26 24 22 22 21 20 20 19 19 18 18 18 18 18 18 19 19 19 19 20 19 19 20 19 19 19 19 18 17 17 17 17 17
3 3 3 3 3 4 5 8 8 10 17 19 17 15 15 20 26 27 21 18 21 25 27 28 31 32 30 27 26 27 30 31 32 34 36 36 36 37 36 36 35 31 27 26 26 25 26 27 28 28 27 26 24 23 21 20 19 18 17 17 17 17 18 18 18 18 18 19 20 20 21 21 22 21 20 21 20 19 19 19 19 19 19 19 19 18
3 4 3 2 4 5 5 4 3 9 14 18 22 25 24 22 22 22 22 23 23 25 28 30 32 34 34 32 31 32 34 34 34 36 36 36 37 37 37 37 36 34 31 27 25 25 26 28 30 29 27 24 22 20 19 18 18 16 16 16 17 17 17 18 18 19 19 20 21 22 22 22 22 22 22 21 21 20 19 18 18 18 18 19 19 18
3 5 4 4 5 5 5 7 12 17 17 15 18 21 21 20 20 21 24 27 27 27 30 32 33 35 35 35 33 33 33 34 34 35 37 37 37 37 37 37 36 36 33 29 26 25 26 28 28 26 23 22 20 19 18 18 17 17 17 17 18 18 18 18 18 19 20 21 21 22 22 22 23 23 23 22 21 21 20 19 18 17 17 17 17 17
10 8 6 6 7 7 8 10 14 15 11 10 14 17 19 21 23 24 27 29 30 31 33 34 35 36 36 36 35 33 33 35 35 35 36 37 37 36 36 36 36 35 34 30 26 24 23 25 24 22 21 20 20 19 19 19 19 19 18 18 18 18 18 19 19 19 20 20 21 21 22 22 22 23 23 23 22 21 20 19 18 17 17 17 16 16
11 7 5 7 8 7 6 7 9 9 7 10 17 21 23 25 25 25 28 31 33 34 35 35 36 37 37 36 35 33 34 37 37 37 37 38 37 36 35 36 36 35 32 29 26 23 21 21 21 19 18 19 20 20 20 20 20 19 18 17 18 18 18 18 19 19 19 20 20 21 22 22 22 22 22 23 23 22 22 21 19 18 17 17 17 16
13 9 8 9 9 10 13 16 17 14 12 16 23 27 28 29 27 27 30 33 35 37 37 36 36 37 37 37 36 35 36 37 38 38 38 39 38 35 34 35 35 33 30 27 25 23 20 18 18 18 17 18 19 20 19 19 19 18 17 16 16 16 16 17 17 18 19 19 20 21 21 22 22 22 22 22 22 23 23 23 23 21 20 19 19 19
Wind_Direction
196 200 204 217 221 220 211 212 233 6 10 335 301 252 246 250 233 143 102 97 227 263 252 248 255 261 264 267 269 270 270 266 263 260 256 253 252 253 255 257 256 255 257 258 257 257 259 261 262 263 259 255 252 248 243 239 238 237 237 239 239 237 236 237 237 237 237 238 238 239 240 242 244 244 244 246 241 231 223 220 223 223 224 229 232 237
190 223 222 218 217 295 195 190 197 316 292 279 273 261 244 246 235 106 91 130 152 267 263 265 272 267 264 267 268 269 267 262 259 256 253 251 251 251 252 254 255 256 256 258 260 261 261 262 262 261 257 254 254 251 247 242 239 238 237 239 240 240 239 240 240 240 240 242 244 245 246 247 248 248 249 248 241 232 225 219 218 222 227 231 233 234
201 228 223 170 95 70 67 134 228 250 262 256 250 257 255 238 217 113 95 129 172 248 274 299 293 280 273 269 264 261 258 258 256 253 254 255 255 252 251 251 252 254 250 254 263 264 263 263 261 261 259 256 255 253 250 246 240 239 238 239 240 240 241 242 243 244 244 246 247 248 248 249 250 249 250 249 242 234 227 221 219 224 231 233 232 229
209 221 189 119 116 134 140 183 217 235 243 240 241 252 247 184 242 217 106 153 203 235 286 310 298 284 279 268 259 250 246 254 258 257 258 256 254 253 253 253 252 250 247 253 262 262 263 266 264 263 262 259 256 253 250 247 243 241 240 240 241 241 243 243 245 247 247 248 248 248 247 246 247 248 249 248 242 233 226 223 221 226 231 230 229 228
212 83 84 129 157 193 187 179 202 222 234 230 227 240 251 277 299 308 29 297 240 229 273 297 284 275 273 264 261 247 227 243 252 254 255 251 254 259 259 258 257 255 254 258 261 257 261 269 271 269 267 263 258 253 251 248 246 244 242 241 241 242 244 244 246 248 248 248 248 247 245 243 244 246 245 242 240 232 225 223 222 224 227 226 227 230
216 87 121 146 158 200 201 195 203 217 240 228 214 231 254 281 324 331 353 331 273 236 166 307 287 268 282 277 271 264 225 238 234 232 242 248 257 261 260 262 264 266 265 265 265 263 262 267 271 271 269 266 263 257 253 248 245 244 243 242 242 242 243 244 245 247 247 248 249 249 247 244 244 244 242 240 239 234 228 225 224 224 225 226 229 232
147 112 152 152 154 178 205 226 203 202 242 242 207 254 259 267 282 280 302 297 282 296 142 299 292 283 296 285 274 273 267 261 246 238 245 249 253 254 255 260 265 269 270 271 275 273 266 265 267 269 268 266 263 259 253 248 244 241 242 242 241 242 243 244 244 246 246 247 249 249 249 248 246 247 246 244 241 237 234 231 228 227 227 228 231 232
133 155 179 172 173 177 206 234 189 193 230 245 35 342 258 225 240 254 284 259 283 326 266 195 235 271 278 276 276 276 269 268 259 251 249 247 250 251 253 256 257 265 271 275 278 275 267 264 264 265 264 259 254 250 247 246 244 241 241 241 241 242 243 244 245 246 247 247 248 250 250 249 247 246 247 245 241 237 235 231 229 227 225 226 228 226
124 173 185 180 188 202 205 324 154 200 222 15 37 8 87 92 103 164 277 265 293 319 274 186 182 252 254 259 271 260 251 266 262 257 252 246 247 247 248 251 256 267 272 271 270 268 265 260 257 258 256 252 245 241 240 241 242 240 240 241 242 243 244 245 246 247 248 248 249 251 251 250 248 245 244 243 241 237 233 228 225 224 223 223 221 217
58 190 201 191 201 212 148 52 22 222 209 139 146 98 89 92 82 86 278 292 292 275 263 181 174 252 275 242 239 223 235 256 258 262 260 235 201 185 208 245 268 281 275 268 264 260 257 252 252 253 252 250 244 240 240 239 239 238 237 239 240 242 245 246 247 247 249 249 250 251 252 251 249 245 242 242 239 235 232 228 224 224 222 219 218 216
74 51 287 217 222 139 106 72 26 15 116 146 156 122 105 117 88 279 252 335 281 263 265 169 178 233 287 236 205 206 234 249 249 251 179 131 138 142 123 41 338 334 327 289 262 243 238 238 240 242 241 245 245 244 245 243 242 241 239 239 239 240 243 246 247 248 248 250 251 252 252 251 249 245 242 242 239 234 232 227 224 226 223 217 218 220
144 156 159 173 160 117 117 94 46 44 136 162 170 163 173 199 170 230 207 159 252 248 16 64 191 233 258 233 170 178 349 276 252 242 157 137 148 133 87 304 277 278 305 300 256 229 221 215 200 187 184 207 259 268 262 256 252 249 247 245 244 244 245 247 249 250 249 250 251 252 252 250 248 245 242 242 241 237 233 228 225 229 228 221 219 222
194 203 156 121 151 182 162 125 90 86 193 201 190 177 211 232 202 229 214 192 238 226 112 341 337 256 252 249 195 222 256 228 217 249 269 290 291 300 309 284 274 262 256 263 255 239 226 213 195 188 198 246 283 287 275 265 259 257 257 254 252 251 250 251 253 253 252 251 251 251 250 249 247 244 241 242 242 239 235 231 230 231 230 225 223 226
193 199 160 147 170 205 202 173 149 169 188 195 191 182 203 217 218 234 221 214 240 200 93 331 49 257 264 271 230 222 225 225 234 278 281 282 281 284 281 273 273 267 253 247 248 245 238 230 217 218 239 267 281 281 271 262 257 255 256 257 257 256 255 256 257 258 257 254 253 252 250 248 247 244 242 242 242 241 237 232 232 232 230 229 229 231
211 235 180 179 168 178 200 215 195 171 179 199 202 198 212 220 232 242 233 243 251 184 138 188 190 242 261 353 300 233 254 266 276 281 277 278 278 279 277 273 273 271 264 260 259 255 245 241 242 247 259 272 277 271 260 256 254 253 255 258 261 261 261 261 261 263 261 258 256 254 251 248 247 247 245 243 242 240 237 234 234 233 230 231 235 239
223 240 168 158 156 168 188 217 206 176 178 198 202 215 228 234 240 254 295 281 304 332 217 194 234 252 261 311 285 267 287 259 245 247 256 273 281 283 283 280 277 274 276 278 280 279 264 251 250 252 259 268 266 258 251 253 255 258 260 263 265 265 265 265 266 267 267 263 259 255 253 250 247 247 247 244 241 238 235 236 237 233 231 234 240 244
220 242 129 122 155 170 184 213 200 195 184 175 185 210 219 3 260 244 216 91 65 279 253 212 254 270 283 289 260 233 241 243 234 233 230 249 267 272 277 280 280 282 286 286 286 288 283 271 257 249 252 256 250 244 248 253 257 261 266 269 272 272 271 271 271 273 272 269 264 259 255 252 249 248 248 245 242 238 235 235 235 231 230 234 239 241
217 252 148 168 177 166 45 22 154 350 13 161 195 198 122 42 310 247 243 213 207 248 255 229 250 268 277 279 227 177 217 233 237 242 236 238 247 252 262 272 279 285 289 291 292 288 283 277 256 237 237 240 233 233 241 243 247 255 265 274 280 281 280 278 277 278 277 274 271 265 260 256 252 252 250 247 243 240 236 233 233 231 231 234 237 239
204 234 211 180 182 138 96 154 184 200 26 37 274 184 126 226 221 205 224 237 231 240 256 247 250 258 252 252 258 195 214 252 275 263 253 249 244 244 252 262 273 285 295 301 303 292 276 262 239 222 220 220 219 222 224 222 227 239 255 274 281 285 286 284 282 283 281 278 275 272 267 262 257 255 253 249 246 241 235 232 233 233 234 236 236 239
185 222 219 12 357 133 141 201 205 184 150 27 311 214 171 264 230 210 212 221 237 240 250 258 254 248 242 249 262 263 264 277 284 279 274 274 268 264 258 250 266 294 308 307 296 276 255 240 226 212 205 206 208 208 206 206 214 230 254 277 286 289 291 291 290 290 287 283 280 277 273 268 264 261 256 250 246 241 236 233 234 234 236 237 237 240
174 215 221 135 51 171 179 204 206 189 168 174 218 207 196 207 230 278 240 218 233 240 242 254 257 256 254 253 260 268 281 288 299 338 307 278 271 265 260 264 278 297 304 302 284 253 234 227 216 203 199 201 199 195 196 205 219 235 254 268 276 280 285 289 290 290 289 286 283 280 278 274 271 265 256 249 244 240 237 234 233 234 236 235 236 241
189 206 213 170 173 209 208 203 207 203 185 187 200 202 203 199 185 227 233 213 216 238 248 256 266 269 263 223 262 274 294 315 3 7 280 255 254 263 280 289 295 300 299 298 282 247 229 222 208 197 198 196 191 192 200 215 234 252 260 265 274 276 274 275 278 281 282 281 279 279 279 277 273 264 255 249 242 238 235 232 231 232 232 232 235 241
199 214 222 209 195 200 185 106 72 295 248 226 222 215 213 204 195 213 221 197 184 218 260 273 269 272 265 166 299 284 299 324 353 312 266 265 280 299 305 299 300 306 303 292 277 246 225 217 205 198 199 193 191 199 210 229 249 259 264 271 279 280 275 271 274 278 280 279 277 276 277 277 273 264 255 247 242 238 234 232 231 230 229 230 234 238
173 209 225 225 212 170 120 111 109 34 288 253 239 225 223 219 216 223 231 214 197 202 224 238 246 265 271 200 165 265 120 220 244 241 251 276 300 300 297 296 301 306 299 283 269 242 214 205 204 203 201 195 197 207 220 242 255 255 260 269 277 280 277 273 276 281 282 281 277 274 275 275 272 266 255 247 243 239 235 233 231 230 231 231 233 235
169 200 212 220 224 205 186 188 194 189 201 232 237 227 225 227 226 223 104 268 243 222 223 232 239 257 266 197 115 162 172 213 232 232 242 270 287 289 292 298 303 304 296 285 269 239 210 203 206 208 205 202 207 217 231 247 253 251 253 261 270 276 276 275 278 282 284 282 277 273 272 272 270 267 258 250 245 239 236 234 231 230 233 232 231 232
178 216 202 207 221 219 213 216 212 195 187 212 238 231 226 222 218 221 210 220 237 236 234 238 243 258 266 265 225 176 196 219 229 231 247 266 276 285 295 300 305 309 305 293 273 246 220 211 213 214 212 211 215 226 238 247 249 247 249 255 263 268 270 275 279 282 284 282 277 273 272 269 267 265 260 254 249 241 237 236 232 230 231 231 230 232
127 322 219 227 240 237 237 259 97 137 166 194 211 216 219 215 212 218 229 227 233 243 245 242 245 258 265 267 267 258 236 231 242 246 247 255 266 280 297 302 305 314 316 299 276 258 239 225 222 222 221 220 222 231 241 246 248 248 249 254 261 263 264 268 274 280 283 282 277 273 272 269 266 264 261 257 253 246 240 238 233 230 230 230 231 234
70 263 240 247 257 261 269 279 286 157 190 212 215 212 213 212 208 209 222 229 231 241 248 243 239 247 259 267 268 267 266 264 261 253 247 244 250 270 291 297 296 301 310 307 288 270 260 247 236 232 231 230 230 236 244 247 250 251 251 256 263 265 262 262 268 276 281 280 277 274 272 269 266 264 261 257 254 247 241 237 232 229 229 229 232 236
130 236 234 231 246 260 268 271 274 273 258 246 240 231 219 208 205 209 224 230 229 235 247 252 251 251 257 263 264 266 270 270 270 269 265 260 261 269 275 280 283 287 294 298 293 283 275 266 252 242 239 238 236 240 246 249 250 251 252 258 264 265 262 260 263 272 277 277 276 274 271 268 265 262 259 255 252 247 240 234 230 228 228 229 233 235
173 223 221 212 231 248 251 252 254 253 257 259 254 248 236 214 203 207 221 227 229 235 245 255 260 260 257 259 266 273 273 272 275 277 268 261 266 271 268 267 272 277 279 281 280 277 274 272 266 257 249 245 245 249 254 254 252 251 256 265 268 267 264 260 261 268 273 274 274 271 269 267 263 259 256 252 250 247 241 234 228 227 226 228 233 235
198 225 215 197 221 244 244 245 244 238 242 250 250 248 247 238 219 212 219 224 228 236 241 245 255 261 259 259 267 271 270 270 271 267 258 260 269 273 267 262 265 270 269 269 269 268 268 269 270 267 263 261 261 260 260 260 259 261 269 275 275 272 267 261 261 265 268 270 270 268 266 265 263 258 253 250 248 246 243 236 229 227 226 227 232 236
180 234 237 188 224 244 239 240 243 240 239 245 248 242 239 239 233 224 222 221 221 229 236 239 245 256 261 262 265 268 269 266 260 258 260 267 271 270 265 260 262 266 267 267 266 266 266 266 267 268 269 272 273 273 274 276 277 278 281 285 284 279 270 263 262 264 265 265 266 264 262 262 262 258 252 249 247 245 244 238 229 226 227 229 234 238
179 208 220 198 221 248 245 239 240 243 242 240 239 233 230 234 238 239 238 232 226 225 231 238 239 247 260 267 264 263 264 257 254 258 262 266 270 271 267 264 265 267 267 267 266 266 266 266 267 268 271 276 280 281 283 285 285 286 289 289 288 282 274 267 265 266 265 263 263 263 260 258 259 257 252 248 247 244 244 240 230 225 227 231 236 240
187 203 215 206 212 247 251 244 231 235 236 227 226 225 224 228 233 236 239 236 231 226 227 239 247 253 261 264 260 260 262 261 263 267 268 270 274 276 271 269 269 269 270 270 269 268 268 267 268 269 271 275 277 278 280 281 282 285 287 286 284 280 276 273 271 271 269 265 264 263 259 256 256 255 250 246 245 242 241 239 231 226 227 232 237 240
192 206 220 220 225 251 262 256 233 229 226 227 232 226 219 224 230 234 239 240 240 237 233 237 246 251 255 257 259 263 266 267 269 273 275 276 276 275 272 271 270 269 270 271 271 271 271 270 270 270 271 273 274 275 277 277 278 280 281 280 277 275 274 275 274 273 271 268 267 263 258 255 254 253 248 243 241 239 239 238 231 226 228 233 238 241
205 207 216 227 226 239 253 244 236 247 263 249 250 234 213 217 224 230 239 243 243 241 239 236 238 243 249 255 259 263 266 270 273 275 275 274 272 271 269 269 270 270 270 272 272 273 274 274 273 273 272 272 272 272 273 273 274 276 275 274 273 272 274 274 273 272 272 270 267 263 258 255 253 252 247 241 238 236 234 234 230 227 229 234 238 239
215 211 207 226 217 217 240 244 252 281 282 257 249 231 209 204 211 219 233 243 239 235 236 237 239 244 248 252 258 264 270 274 277 274 272 270 268 269 270 270 272 273 273 274 275 275 275 274 274 273 272 271 271 271 272 272 273 272 271 271 272 273 273 272 271 272 271 268 265 261 257 254 253 251 246 240 236 233 229 228 226 226 229 233 237 239
213 212 202 215 211 206 231 243 250 257 247 234 242 240 228 218 215 212 225 244 245 234 230 232 240 246 248 252 258 263 267 268 267 270 271 271 271 274 275 276 278 279 279 280 280 279 277 276 275 273 271 271 271 272 273 272 271 270 270 271 272 271 270 269 269 269 267 265 263 259 256 253 251 248 242 236 233 228 224 222 220 222 227 232 236 240
213 214 208 220 224 213 222 231 233 241 234 224 238 248 248 238 222 207 229 247 252 243 236 233 242 248 249 252 255 253 253 257 248 262 271 276 280 281 282 284 285 286 287 286 283 281 279 278 277 276 274 274 274 273 273 272 270 269 269 269 268 267 268 268 266 265 263 261 259 255 253 250 245 239 233 230 226 221 217 216 216 219 223 227 233 241
213 213 211 222 227 223 230 236 233 244 250 235 244 259 258 235 209 204 233 235 240 248 246 238 242 249 247 248 251 243 226 238 247 262 274 281 283 282 284 287 288 288 288 286 283 282 281 278 276 276 275 275 275 275 273 270 267 265 264 264 264 265 265 265 264 262 259 256 252 248 244 238 232 227 223 220 216 212 209 209 213 217 221 228 238 248
220 217 216 221 222 223 231 238 243 249 245 244 256 262 241 185 199 218 243 277 272 264 265 257 250 251 246 243 247 244 237 244 252 263 273 278 279 280 284 286 285 284 283 283 283 283 282 280 277 274 272 271 271 270 267 264 261 261 260 261 261 261 261 261 259 256 252 247 242 235 228 223 219 215 211 207 203 202 201 205 211 217 224 233 242 244
240 228 221 225 228 228 230 236 249 252 206 215 249 251 179 170 221 235 306 344 347 334 329 328 312 286 261 250 251 252 252 255 258 263 269 274 278 281 283 283 282 280 279 280 281 282 282 281 278 274 271 268 265 261 259 259 258 259 259 258 257 257 256 255 251 247 243 236 228 221 215 211 206 200 196 193 191 193 197 202 209 217 224 227 226 221
235 245 236 223 227 234 231 231 240 249 165 168 246 237 167 191 298 340 337 331 335 335 332 333 335 329 308 287 280 276 274 273 271 270 273 277 280 282 283 283 285 285 283 283 282 282 281 279 277 274 270 266 262 260 261 261 260 258 255 253 252 250 249 246 242 237 230 221 215 210 205 200 194 189 186 183 183 187 192 198 204 210 213 211 206 203
222 229 245 228 197 221 232 231 219 230 338 343 320 280 229 296 330 334 326 318 323 325 323 320 316 314 314 309 301 297 296 294 291 289 288 287 288 289 289 291 291 289 287 284 282 281 280 277 274 269 265 264 265 266 265 261 257 253 249 247 245 243 240 236 230 224 216 210 205 200 195 190 185 183 180 178 179 184 187 192 197 200 200 199 198 197
207 223 251 248 221 213 232 244 252 285 297 301 298 283 285 311 319 317 311 310 316 319 318 313 310 311 311 306 300 296 294 294 297 299 299 298 298 298 299 298 296 292 288 285 283 281 277 274 271 267 265 267 267 266 261 255 251 247 243 241 237 232 228 223 217 212 206 200 196 190 186 182 178 177 177 176 178 182 185 187 189 191 193 193 192 193
266 2 345 276 276 299 269 245 246 271 282 286 291 293 295 305 310 307 302 303 312 318 317 312 311 312 311 308 304 300 297 298 300 301 302 301 301 301 300 299 298 297 293 288 283 277 271 270 270 268 268 267 263 258 252 247 242 238 234 231 225 219 216 212 206 201 195 191 187 182 179 176 173 173 174 174 175 178 182 184 186 187 190 189 188 188
272 23 29 281 289 302 272 247 283 300 294 296 302 303 300 300 304 305 305 307 312 315 314 313 313 312 311 310 307 305 305 306 304 303 304 303 302 301 299 296 295 295 292 287 280 271 266 265 267 268 267 263 255 249 243 237 232 224 218 217 214 208 204 200 197 192 187 184 180 177 175 174 172 171 171 172 173 174 177 181 184 187 188 187 184 182
284 357 341 280 268 266 271 304 311 301 298 307 307 301 300 303 309 314 316 314 313 311 310 311 312 311 311 312 310 307 307 308 307 305 305 303 301 298 296 293 292 291 288 284 277 267 261 260 262 263 261 254 246 239 232 227 221 210 204 206 205 198 193 191 188 186 182 179 177 175 174 174 174 172 171 171 172 173 175 177 180 182 183 182 180 178
291 315 307 280 278 272 273 293 297 290 291 309 308 302 304 308 311 314 314 312 310 308 310 311 311 310 309 309 309 307 304 305 306 305 303 302 299 296 294 292 290 287 285 282 274 264 257 256 257 256 251 244 236 228 221 216 209 199 195 198 197 191 187 186 183 181 180 177 176 175 173 173 175 175 173 172 172 172 172 171 172 174 174 174 174 174
268 268 258 267 278 277 272 287 296 293 294 298 298 299 302 305 308 308 306 307 307 306 307 308 308 308 307 305 306 306 303 304 305 303 300 299 297 295 293 291 288 284 280 275 268 261 256 253 252 249 244 237 229 223 217 210 202 194 190 193 192 188 187 186 181 179 179 176 175 175 173 173 174 175 175 173 171 169 166 164 165 167 168 170 171 170
243 241 245 255 260 265 273 281 285 284 283 285 288 292 296 300 301 300 298 300 301 302 304 304 302 304 305 304 303 302 301 302 304 302 299 297 296 293 291 289 285 280 273 268 263 258 252 247 243 239 233 229 227 224 217 208 200 192 186 187 189 187 187 186 183 179 176 175 175 175 174 174 174 174 175 173 171 170 168 166 166 167 168 171 173 173